Regional Weather Roundup
Issued by NWS Green Bay, WI

Home | Current Version | Previous Version | Text Only | Print | Product List | Glossary On
Versions: 1 2 3 4 5 6 7 8 9 10 11 12 13 14 15 16 17 18 19 20 21 22 23 24 25 26 27 28 29 30 31 32 33 34 35 36 37 38 39 40 41 42 43 44 45 46 47 48 49 50
000
ASUS43 KGRB 301310
RWRGRB

NORTH-CENTRAL AND NORTHEAST WISCONSIN REGIONAL WEATHER ROUNDUP
NATIONAL WEATHER SERVICE GREEN BAY WI
800 AM CDT WED JUL 30 2014

WIZ005-009-010>012-018-019-301400-
NORTH CENTRAL WISCONSIN

CITY           SKY/WX    TMP DP  RH WIND       PRES   REMARKS
IRONWOOD       CLOUDY    54  54 100 SW3       30.05S VSB<1/4
MANITOWISH WTR FOG       51  51 100 CALM      30.09R VSB<1/4
ARBOR VITAE    FOG       56  54  94 CALM      30.09S VSB 1/4
EAGLE RIVER    FOG       51  51 100 CALM      30.08S VSB 1
LAND O LAKES   CLOUDY    53  53 100 CALM      30.09S FOG
RHINELANDER    CLOUDY    52  51  97 N3        30.09S FOG
PHILLIPS       CLOUDY    53  53 100 CALM      30.09S FOG
ANTIGO         SUNNY     53  52  96 N3        30.08S
TOMAHAWK       FOG       51  50  97 CALM      30.10R VSB<1/4
MERRILL        FOG       52  52 100 N3        30.09R VSB 1/4
$$

WIZ013-073-301400-
NORTHEAST WISCONSIN

CITY           SKY/WX    TMP DP  RH WIND       PRES   REMARKS
IRON MOUNTAIN  SUNNY     56  50  80 NW3       30.05R
MARINETTE      SUNNY     55  52  88 NW5       30.04R
OCONTO         SUNNY     58  54  88 N6        30.04S
$$

WIZ017-030-035>037-045-301400-
CENTRAL WISCONSIN

CITY           SKY/WX    TMP DP  RH WIND       PRES   REMARKS
MEDFORD        FOG       53  53  99 CALM      30.09R VSB<1/4
WAUSAU         MOSUNNY   55  53  93 N5        30.07R
MOSINEE        SUNNY     55  54  94 N7        30.08R
MARSHFIELD     SUNNY     60  55  83 NE6       30.07R
WISC RAPIDS    SUNNY     60  55  83 N6        30.08R
STEVENS POINT  SUNNY     56  52  86 CALM      30.07S
WAUPACA        SUNNY     60  57  91 N5        30.06R
SHAWANO        SUNNY     59  55  87 CALM      30.07R
CLINTONVILLE   SUNNY     59  54  82 N3        30.06R
$$

WIZ038-039-048-051-301400-
FOX VALLEY

CITY           SKY/WX    TMP DP  RH WIND       PRES   REMARKS
NWS GREEN BAY  SUNNY     62  59  90 NW3       30.05R
APPLETON       MOSUNNY   59  57  94 N5        30.06R
OSHKOSH        CLOUDY    62  59  90 N7        30.05R FOG
FOND DU LAC    CLOUDY    63  59  87 CALM      30.05R
$$

WIZ022-050-052-301400-
EAST CENTRAL WISCONSIN

CITY           SKY/WX    TMP DP  RH WIND       PRES   REMARKS
STURGEON BAY   SUNNY     59  54  82 N8        30.05R
MANITOWOC      SUNNY     61  56  83 NE6       30.04S
SHEBOYGAN      MOSUNNY   61  57  87 N7        30.04R
$$

LMZ563-521-522-541>543-301400-
LAKESHORE

STATION/POSITION TIME  TEMP    WIND        PRES    VSBY  WAVE
                       AIR SEA DIR/SP/G                  HT/PER
                 (UTC) (F)     (DEG/KT/KT) (MB)    (MI)  (FT/S)
SHEBOYGAN LKSHOR 1300   60     340/ 10/ 13 1017.4R
KEWAUNEE LKSHORE 1300   60     320/  2/  4 1017.7S
ALGOMA MARINA    1200          340/  5/  6   N/A
TWO RIVERS CG    1200   59                   N/A       6   0
NORTHPORT PIER   1300   58     340/  9/ 11 1016.6S
N MID LAKE BUOY  1300   55 54  340/ 12/ 14 1015.9R         1
S GREEN BAY BUOY 1300   60 65  330/  8     1018.3R
SISTER BAY LKSHO 1200   61     350/ 11/ 12   N/A
CHAMBERS ISLAND  1300   60     320/  6/ 10 1017.3R
MENOMINEE LKSHOR 1300   57     310/  6/  8 1017.8S
$$


USA.gov is the U.S. government's official web portal to all federal, state and local government web resources and services.